Location: Newark
(52.4787°S, 179.0532°W)
Time: 17:47:55
(UTC+00:00)

Transit 2A Rocket - Pass Details

Date: 28 November 2019
Orbit: 594 x 909 km, 66.7° (Epoch: 08 December)

Event Time Altitude Azimuth Distance (km) Brightness Sun altitude
Rises 20:26:08 0° 308° (NW) 3,393 8.1 41.1°
Reaches altitude 10° 20:28:34 10° 304° (NW) 2,503 7.5 41.4°
Maximum altitude 20:34:22 61° 224° (SW) 1,024 5.9 42.3°
Drops below altitude 10° 20:40:29 10° 143° (SE) 2,627 8.0 43.1°
Sets 20:43:05 0° 139° (SE) 3,574 8.6 43.5°
